Погода в Тармакуле

Россия / Новосибирская область     55°18′26″N   76°58′29″E
темп.,
°C
ветер,
м/с
пор.,
м/с
влажн.,
%
обл.,
%
осадки,
мм/ч
давл.,
гПа
погр.,
м
22 апреля, чт
чт2201:00−2ссв611795 0.0 1034584
04:00−3ссв510805 0.0 1036485
07:00−3ссв59805 0.0 1040399
10:000св57585 0.0 1042750
13:00+3св56445 0.0 10431401
16:00+4св45415 0.0 10431593
19:00+4св44425 0.0 10441541
22:00+1всв33621 0.0 104638
23 апреля, пт
пт2301:000в34720 0.0 104693
04:00−1в23785 0.0 104661
07:00−1в22805 0.0 104739
10:00+3в23595 0.0 1047669
13:00+5вюв33465 0.0 10461240
16:00+7юв11425 0.0 10441542
19:00+7в22425 0.0 10431447
22:00+4ююз22615 0.0 104318
24 апреля, сб
сб2401:00+2юв00645 0.0 104210
04:00+1всв11680 0.0 104110
07:00+1ююв22701 0.0 104015
10:00+4юв22565 0.0 1039463
13:00+7ююв22466 0.0 10371243
16:00+9ююз32405 0.0 10351598
19:00+8ю214034 0.0 10341353
22:00+5ююв355198 0.0 103491
25 апреля, вс
вс2501:00+4ююв334783 0.0 103345
04:00+3ююв3454100 0.0 103262
07:00+2ююв3568100 0.0 103291
10:00+5ююв4757100 0.0 1031326
13:00+8ююв5744100 0.0 10301012
16:00+10ююв5738100 0.0 10281387
19:00+10юв5742100 0.0 10271107
22:00+6юв41055100 0.0 1027203
26 апреля, пн
пн2601:00+6юв51258100 0.0 1025284
04:00+4юв4116682 0.0 1025216
07:00+3юв4116686 0.0 1024233
10:00+8юв7115265 0.0 1023437
13:00+11ююв794438 0.0 1022742
16:00+14ююв793576 0.0 10211408
19:00+13ююв574091 0.0 1020560
22:00+11зсз226570 0.0 102042